Location: Arboyeti
(42.1122°N, 44.6017°E)
Time: 03:46:24
(UTC+00:00)

Cosmos 909 Rocket - Pass Details

Date: 19 April 2021
Orbit: 989 x 2090 km, 65.9° (Epoch: 09 May)

Event Time Altitude Azimuth Distance (km) Brightness Sun altitude
Rises 16:28:50 0° 190° (S) 3,875 7.0 -8.1°
Reaches altitude 10° 16:31:39 10° 185° (S) 2,840 6.2 -8.5°
Maximum altitude 16:37:44 46° 114° (ESE) 1,311 4.3 -9.6°
Drops below altitude 10° 16:43:42 10° 43° (NE) 2,788 6.2 -10.6°
Sets 16:46:25 0° 37° (NE) 3,797 7.0 -11.0°
